LAN022 SCQP-SCEL

Flight info

Callsign LAN022
Flight time 2h 8m
Altitude 36000
Route KETIR7E KETIR UQ802 EROLO EROLO8A
Aircraft A321/M-SDE1E2E3FGHIRWYZ/SB1

Departure

Time 2026-04-24 16:46
Airport La Araucanía International Airport (SCQP)

Arrival

Time 2026-04-24 18:54
Airport Comodoro Arturo Merino Benítez International Airport (SCEL)
Time Latitude Longitude Altitude Speed Heading
2026-04-24 16:06 -38.92743 -72.64793 311 ft 0 kts 108°
2026-04-24 16:27 -38.92740 -72.64806 314 ft 4 kts 107°
2026-04-24 16:27 -38.92733 -72.64833 312 ft 4 kts 107°
2026-04-24 16:27 -38.92727 -72.64866 312 ft 4 kts 97°
2026-04-24 16:28 -38.92726 -72.64872 313 ft 0 kts 95°
2026-04-24 16:30 -38.92727 -72.64858 312 ft 7 kts 98°
2026-04-24 16:30 -38.92738 -72.64812 315 ft 7 kts 108°
2026-04-24 16:30 -38.92743 -72.64793 316 ft 0 kts 108°
2026-04-24 16:36 -38.92741 -72.64801 314 ft 4 kts 108°
2026-04-24 16:37 -38.92732 -72.64834 313 ft 4 kts 114°
2026-04-24 16:37 -38.92719 -72.64864 313 ft 4 kts 128°
2026-04-24 16:37 -38.92708 -72.64880 312 ft 4 kts 151°
2026-04-24 16:37 -38.92691 -72.64886 313 ft 0 kts 198°
2026-04-24 16:41 -38.92731 -72.64902 314 ft 9 kts 198°
2026-04-24 16:41 -38.92789 -72.64926 313 ft 8 kts 198°
2026-04-24 16:41 -38.92840 -72.64947 313 ft 7 kts 198°
2026-04-24 16:42 -38.92872 -72.64985 312 ft 6 kts 249°
2026-04-24 16:42 -38.92873 -72.65038 313 ft 8 kts 279°
2026-04-24 16:42 -38.92847 -72.65172 314 ft 18 kts 284°
2026-04-24 16:42 -38.92900 -72.65283 315 ft 16 kts 203°
2026-04-24 16:43 -38.93001 -72.65325 314 ft 15 kts 198°
2026-04-24 16:43 -38.93104 -72.65369 312 ft 16 kts 198°
2026-04-24 16:43 -38.93210 -72.65407 312 ft 15 kts 197°
2026-04-24 16:43 -38.93328 -72.65454 312 ft 22 kts 197°
2026-04-24 16:44 -38.93482 -72.65515 312 ft 23 kts 197°
2026-04-24 16:44 -38.93558 -72.65528 312 ft 7 kts 163°
2026-04-24 16:44 -38.93600 -72.65516 313 ft 5 kts 187°
2026-04-24 16:44 -38.93597 -72.65557 314 ft 8 kts 345°
2026-04-24 16:45 -38.93547 -72.65539 312 ft 7 kts 18°
2026-04-24 16:45 -38.93437 -72.65497 310 ft 40 kts 16°
2026-04-24 16:45 -38.92942 -72.65302 315 ft 108 kts 17°
2026-04-24 16:45 -38.92037 -72.64941 337 ft 156 kts 16°
2026-04-24 16:46 -38.91035 -72.64540 971 ft 152 kts 15°
2026-04-24 16:46 -38.89958 -72.64115 1283 ft 173 kts 16°
2026-04-24 16:46 -38.88723 -72.63631 1532 ft 197 kts 16°
2026-04-24 16:46 -38.87343 -72.63090 1789 ft 220 kts 16°
2026-04-24 16:47 -38.85790 -72.62483 2143 ft 246 kts 16°
2026-04-24 16:47 -38.84099 -72.61882 2880 ft 256 kts 13°
2026-04-24 16:47 -38.82335 -72.61369 3773 ft 263 kts 11°
2026-04-24 16:47 -38.80522 -72.60883 4625 ft 270 kts 10°
2026-04-24 16:48 -38.78656 -72.60395 5472 ft 277 kts
2026-04-24 16:48 -38.76785 -72.59903 6366 ft 280 kts
2026-04-24 16:48 -38.74869 -72.59388 7240 ft 282 kts
2026-04-24 16:48 -38.72936 -72.58862 8069 ft 286 kts
2026-04-24 16:49 -38.70979 -72.58328 8906 ft 290 kts
2026-04-24 16:49 -38.68989 -72.57782 9743 ft 294 kts
2026-04-24 16:49 -38.66968 -72.57229 10421 ft 304 kts
2026-04-24 16:49 -38.64820 -72.56647 10636 ft 328 kts
2026-04-24 16:50 -38.63318 -72.56241 10874 ft 338 kts
2026-04-24 16:50 -38.60198 -72.55390 11740 ft 347 kts
2026-04-24 16:50 -38.57829 -72.54735 12492 ft 351 kts
2026-04-24 16:50 -38.55428 -72.54071 13255 ft 354 kts
2026-04-24 16:51 -38.52969 -72.53394 14026 ft 359 kts
2026-04-24 16:51 -38.50519 -72.52725 14694 ft 362 kts
2026-04-24 16:51 -38.48073 -72.52059 15344 ft 366 kts
2026-04-24 16:51 -38.45565 -72.51377 16025 ft 370 kts
2026-04-24 16:52 -38.43042 -72.50692 16703 ft 373 kts
2026-04-24 16:52 -38.40482 -72.49995 17371 ft 377 kts
2026-04-24 16:52 -38.37908 -72.49292 18037 ft 381 kts
2026-04-24 16:52 -38.35304 -72.48577 18691 ft 385 kts
2026-04-24 16:53 -38.32672 -72.47853 19230 ft 388 kts
2026-04-24 16:53 -38.30015 -72.47125 19810 ft 392 kts
2026-04-24 16:53 -38.27374 -72.46408 20368 ft 395 kts
2026-04-24 16:53 -38.24679 -72.45684 20910 ft 398 kts
2026-04-24 16:54 -38.21956 -72.44940 21468 ft 402 kts
2026-04-24 16:54 -38.19216 -72.44175 22005 ft 405 kts
2026-04-24 16:54 -38.16457 -72.43392 22539 ft 408 kts
2026-04-24 16:54 -38.13672 -72.42598 23070 ft 412 kts
2026-04-24 16:55 -38.10868 -72.41802 23588 ft 415 kts
2026-04-24 16:55 -38.08038 -72.41008 24054 ft 418 kts
2026-04-24 16:55 -38.05189 -72.40216 24485 ft 420 kts
2026-04-24 16:55 -38.02319 -72.39422 24946 ft 423 kts
2026-04-24 16:56 -37.99410 -72.38617 25388 ft 425 kts
2026-04-24 16:56 -37.96513 -72.37814 25849 ft 427 kts
2026-04-24 16:56 -37.93608 -72.37007 26299 ft 429 kts
2026-04-24 16:56 -37.90721 -72.36201 26732 ft 431 kts
2026-04-24 16:57 -37.87748 -72.35368 27171 ft 433 kts
2026-04-24 16:57 -37.84797 -72.34544 27591 ft 435 kts
2026-04-24 16:57 -37.81834 -72.33722 28022 ft 437 kts
2026-04-24 16:57 -37.78848 -72.32893 28458 ft 439 kts
2026-04-24 16:58 -37.75898 -72.32077 28859 ft 442 kts
2026-04-24 16:58 -37.72889 -72.31244 29271 ft 444 kts
2026-04-24 16:58 -37.69867 -72.30408 29668 ft 446 kts
2026-04-24 16:58 -37.66828 -72.29572 30049 ft 448 kts
2026-04-24 16:59 -37.63782 -72.28733 30412 ft 450 kts
2026-04-24 16:59 -37.60719 -72.27846 30726 ft 452 kts 10°
2026-04-24 16:59 -37.54582 -72.25946 31359 ft 456 kts 11°
2026-04-24 17:00 -37.51491 -72.24972 31686 ft 458 kts 11°
2026-04-24 17:00 -37.46320 -72.23362 32616 ft 456 kts
2026-04-24 17:00 -37.42229 -72.22113 33014 ft 455 kts 10°
2026-04-24 17:01 -37.36098 -72.20264 33926 ft 452 kts 10°
2026-04-24 17:01 -37.33032 -72.19339 34363 ft 451 kts 10°
2026-04-24 17:02 -37.27969 -72.17810 34947 ft 451 kts
2026-04-24 17:02 -37.24919 -72.16885 35286 ft 450 kts
2026-04-24 17:02 -37.21875 -72.15960 35618 ft 450 kts
2026-04-24 17:02 -37.18829 -72.15035 35937 ft 450 kts
2026-04-24 17:03 -37.12699 -72.13176 36257 ft 454 kts
2026-04-24 17:03 -37.09623 -72.12243 36266 ft 456 kts
2026-04-24 17:04 -37.03480 -72.10387 36274 ft 457 kts
2026-04-24 17:04 -36.94193 -72.07601 36265 ft 458 kts
2026-04-24 17:05 -36.88012 -72.05743 36266 ft 457 kts
2026-04-24 17:06 -36.78675 -72.02949 36263 ft 458 kts
2026-04-24 17:06 -36.69384 -72.00169 36263 ft 458 kts
2026-04-24 17:07 -36.63144 -71.98309 36261 ft 458 kts
2026-04-24 17:08 -36.50786 -71.94630 36258 ft 458 kts
2026-04-24 17:08 -36.44584 -71.92795 36258 ft 458 kts
2026-04-24 17:09 -36.32169 -71.89124 36257 ft 458 kts
2026-04-24 17:10 -36.19675 -71.85439 36254 ft 458 kts
2026-04-24 17:12 -35.94896 -71.78168 36252 ft 458 kts
2026-04-24 18:54 -33.39591 -70.79373 1565 ft 0 kts 178°